GW1213 Weather Reports


time (UTC)temp
C
wind
direction
speed
KPH
gust
KPH
rain 1hr
cm
rain 24hr
cm
rain mn
cm
humidity
%
barometer
mb
20260902012535 27 0 0.0 0.0 0.00 0.00 0.00 85 1014.4
20260902012038 27 0 0.0 0.0 0.00 0.00 0.00 84 1014.2
20260902011603 27 0 0.0 0.0 0.00 0.00 0.00 83 1014.2
20260902011039 27 0 0.0 0.0 0.00 0.00 0.00 83 1014.1
20260902010537 27 0 0.0 0.0 0.00 0.00 0.00 83 1014.0
20260902010105 28 0 0.0 0.0 0.00 0.00 0.00 83 1013.8
20260902005536 28 0 0.0 0.0 0.00 0.00 0.00 82 1013.7
20260902005036 28 0 0.0 0.0 0.00 0.00 0.00 82 1013.6
20260902004559 28 0 0.0 0.0 0.00 0.00 0.00 81 1013.6
20260902004036 28 0 0.0 0.0 0.00 0.00 0.00 81 1013.5
20260902003535 28 0 0.0 0.0 0.00 0.00 0.00 81 1013.4
20260902003106 28 0 0.0 0.0 0.00 0.00 0.00 79 1013.3
20260902002535 29 0 0.0 0.0 0.00 0.00 0.00 78 1013.2
20260902002039 29 0 0.0 0.0 0.00 0.00 0.00 77 1013.2
20260902001602 30 0 0.0 0.0 0.00 0.00 0.00 76 1013.2
20260902001038 30 0 0.0 0.0 0.00 0.00 0.00 74 1013.2
20260902000538 30 0 0.0 0.0 0.00 0.00 0.00 72 1013.1
20260902000055 30 0 0.0 0.0 0.00 0.00 0.00 72 1013.2
20260901235538 30 0 0.0 0.0 0.00 0.00 0.00 71 1013.3
20260901235037 31 0 0.0 0.0 0.00 0.00 0.00 71 1013.3
20260901234606 31 0 0.0 0.0 0.00 0.00 0.00 70 1013.2
20260901234035 31 0 0.0 0.0 0.00 0.00 0.00 70 1013.2
20260901233535 32 0 0.0 0.0 0.00 0.00 0.00 64 1013.1
20260901233105 32 0 0.0 0.0 0.00 0.00 0.00 63 1013.2
20260901232536 32 0 0.0 0.0 0.00 0.00 0.00 61 1013.2
20260901232036 32 0 0.0 0.0 0.00 0.00 0.00 59 1013.3
20260901231615 32 0 0.0 0.0 0.00 0.00 0.00 58 1013.3
20260901231035 33 0 0.0 1.6 0.00 0.00 0.00 58 1013.2
20260901230538 33 0 0.0 4.8 0.00 0.00 0.00 57 1013.2
20260901230109 33 0 0.0 4.8 0.00 0.00 0.00 56 1013.4
20260901225537 33 0 0.0 6.4 0.00 0.00 0.00 55 1013.4
20260901225037 33 0 1.6 8.0 0.00 0.00 0.00 55 1013.5
20260901224554 33 216 3.2 8.0 0.00 0.00 0.00 55 1013.5
20260901224036 33 0 0.0 4.8 0.00 0.00 0.00 54 1013.6
20260901223539 33 180 0.0 3.2 0.00 0.00 0.00 54 1013.6
20260901223101 33 276 0.0 8.0 0.00 0.00 0.00 54 1013.7
20260901222536 33 0 0.0 8.0 0.00 0.00 0.00 55 1013.7
20260901222039 33 199 1.6 8.0 0.00 0.00 0.00 53 1013.7
20260901221612 34 229 1.6 6.4 0.00 0.00 0.00 52 1013.7
20260901221038 34 0 0.0 4.8 0.00 0.00 0.00 53 1013.8
20260901220535 34 205 0.0 9.7 0.00 0.00 0.00 53 1013.8
20260901220059 34 215 3.2 9.7 0.00 0.00 0.00 54 1013.8
20260901215535 34 247 0.0 6.4 0.00 0.00 0.00 55 1013.8
20260901215038 34 207 1.6 6.4 0.00 0.00 0.00 54 1013.9
20260901214605 34 271 0.0 11.3 0.00 0.00 0.00 55 1013.9
20260901214037 34 215 1.6 11.3 0.00 0.00 0.00 54 1013.8
20260901213541 35 0 1.6 9.7 0.00 0.00 0.00 54 1013.9
20260901213057 35 181 1.6 9.7 0.00 0.00 0.00 56 1013.9
20260901212537 35 0 0.0 11.3 0.00 0.00 0.00 54 1013.9
20260901212037 35 270 3.2 12.9 0.00 0.00 0.00 53 1013.9
20260901211600 35 128 4.8 12.9 0.00 0.00 0.00 53 1013.9
20260901211038 35 223 3.2 12.9 0.00 0.00 0.00 52 1013.9
20260901210538 35 236 3.2 11.3 0.00 0.00 0.00 52 1013.9
20260901210058 36 220 3.2 11.3 0.00 0.00 0.00 53 1013.9
20260901205538 36 178 1.6 6.4 0.00 0.00 0.00 52 1013.9
20260901205038 36 0 1.6 6.4 0.00 0.00 0.00 52 1013.9
20260901204557 36 130 0.0 6.4 0.00 0.00 0.00 53 1014.0
20260901204035 36 200 0.0 6.4 0.00 0.00 0.00 51 1014.1
20260901203539 36 287 0.0 11.3 0.00 0.00 0.00 52 1014.1
20260901203105 36 0 1.6 11.3 0.00 0.00 0.00 53 1014.1
20260901202536 36 223 1.6 9.7 0.00 0.00 0.00 51 1014.2
20260901202038 36 0 0.0 4.8 0.00 0.00 0.00 52 1014.3
20260901201600 36 0 0.0 8.0 0.00 0.00 0.00 53 1014.3
20260901201039 36 298 1.6 8.0 0.00 0.00 0.00 51 1014.3
20260901200537 36 146 0.0 4.8 0.00 0.00 0.00 52 1014.5
20260901200059 36 0 0.0 4.8 0.00 0.00 0.00 51 1014.4
20260901195537 36 222 1.6 4.8 0.00 0.00 0.00 53 1014.4
20260901195036 36 92 0.0 4.8 0.00 0.00 0.00 54 1014.5
20260901194602 36 0 0.0 6.4 0.00 0.00 0.00 52 1014.6
20260901194036 36 280 0.0 6.4 0.00 0.00 0.00 53 1014.8
20260901193536 36 259 1.6 6.4 0.00 0.00 0.00 52 1014.9
20260901193053 36 0 0.0 4.8 0.00 0.00 0.00 54 1015.0
20260901192537 36 0 1.6 4.8 0.00 0.00 0.00 53 1015.1
20260901192038 36 0 0.0 6.4 0.00 0.00 0.00 54 1015.1
20260901191600 35 196 1.6 6.4 0.00 0.00 0.00 54 1015.2
20260901191036 35 238 0.0 4.8 0.00 0.00 0.00 53 1015.3
20260901190537 35 0 0.0 4.8 0.00 0.00 0.00 54 1015.2
20260901190058 35 294 1.6 4.8 0.00 0.00 0.00 56 1015.2
20260901185538 35 267 0.0 8.0 0.00 0.00 0.00 54 1015.2
20260901185037 35 360 0.0 8.0 0.00 0.00 0.00 55 1015.1
20260901184603 35 225 1.6 8.0 0.00 0.00 0.00 52 1015.1
20260901184035 36 0 1.6 9.7 0.00 0.00 0.00 54 1015.0
20260901183537 36 329 1.6 9.7 0.00 0.00 0.00 54 1015.1
20260901183120 35 248 0.0 6.4 0.00 0.00 0.00 52 1015.2
20260901182535 35 0 1.6 6.4 0.00 0.00 0.00 56 1015.2
20260901182035 35 265 1.6 6.4 0.00 0.00 0.00 53 1015.2
20260901181603 35 255 0.0 6.4 0.00 0.00 0.00 57 1015.2
20260901181035 35 0 0.0 6.4 0.00 0.00 0.00 55 1015.3
20260901180536 35 225 1.6 6.4 0.00 0.00 0.00 53 1015.3
20260901180100 35 269 1.6 6.4 0.00 0.00 0.00 53 1015.2
20260901175535 35 259 0.0 3.2 0.00 0.00 0.00 57 1015.2
20260901175037 35 0 0.0 4.8 0.00 0.00 0.00 53 1015.3
20260901174558 35 0 1.6 6.4 0.00 0.00 0.00 54 1015.2
20260901174035 35 204 0.0 6.4 0.00 0.00 0.00 56 1015.3
20260901173539 35 0 1.6 6.4 0.00 0.00 0.00 53 1015.4
20260901173155 35 300 0.0 6.4 0.00 0.00 0.00 56 1015.4
20260901172538 35 0 1.6 6.4 0.00 0.00 0.00 54 1015.4
20260901172035 35 0 0.0 3.2 0.00 0.00 0.00 55 1015.3
20260901171604 35 323 0.0 4.8 0.00 0.00 0.00 55 1015.3
20260901171035 35 214 1.6 4.8 0.00 0.00 0.00 54 1015.2
20260901170536 35 283 1.6 8.0 0.00 0.00 0.00 56 1015.2
20260901165535 35 227 1.6 8.0 0.00 0.00 0.00 56 1015.4
20260901165035 34 269 0.0 6.4 0.00 0.00 0.00 57 1015.5
20260901164557 34 0 0.0 4.8 0.00 0.00 0.00 54 1015.5
20260901164036 34 0 0.0 3.2 0.00 0.00 0.00 57 1015.5
20260901163535 33 0 0.0 1.6 0.00 0.00 0.00 55 1015.6
20260901163119 34 0 0.0 4.8 0.00 0.00 0.00 56 1015.6
20260901162535 34 0 0.0 4.8 0.00 0.00 0.00 57 1015.6
20260901162038 34 0 0.0 6.4 0.00 0.00 0.00 58 1015.7
20260901161609 33 0 0.0 6.4 0.00 0.00 0.00 56 1015.7
20260901161036 33 284 1.6 9.7 0.00 0.00 0.00 58 1015.8
20260901160535 33 0 0.0 9.7 0.00 0.00 0.00 62 1015.8
20260901160058 33 153 1.6 11.3 0.00 0.00 0.00 58 1015.8
20260901155535 33 177 1.6 11.3 0.00 0.00 0.00 59 1015.9
20260901155036 33 184 0.0 9.7 0.00 0.00 0.00 62 1015.9
20260901154559 33 56 3.2 9.7 0.00 0.00 0.00 60 1015.9
20260901154038 33 0 0.0 8.0 0.00 0.00 0.00 59 1016.0
20260901153539 32 188 0.0 6.4 0.00 0.00 0.00 61 1016.1
20260901153110 32 0 0.0 6.4 0.00 0.00 0.00 63 1016.2
20260901152538 32 144 0.0 3.2 0.00 0.00 0.00 67 1016.3
20260901152035 32 0 0.0 0.0 0.00 0.00 0.00 65 1016.3
20260901151602 32 0 0.0 0.0 0.00 0.00 0.00 69 1016.4
20260901151036 32 0 0.0 0.0 0.00 0.00 0.00 69 1016.5
20260901150535 32 0 0.0 0.0 0.00 0.00 0.00 70 1016.5
20260901150107 32 0 0.0 0.0 0.00 0.00 0.00 70 1016.5
20260901145539 31 0 0.0 0.0 0.00 0.00 0.00 68 1016.5
20260901145039 31 0 0.0 3.2 0.00 0.00 0.00 69 1016.6
20260901144607 31 0 0.0 3.2 0.00 0.00 0.00 69 1016.5
20260901144035 31 0 0.0 3.2 0.00 0.00 0.00 69 1016.6
20260901143536 31 0 0.0 0.0 0.00 0.00 0.00 71 1016.6
20260901143108 31 0 0.0 0.0 0.00 0.00 0.00 71 1016.6
20260901142536 30 0 0.0 0.0 0.00 0.00 0.00 71 1016.5
20260901142035 30 0 0.0 0.0 0.00 0.00 0.00 73 1016.5
20260901141607 30 0 0.0 0.0 0.00 0.00 0.00 75 1016.5
20260901141035 29 0 0.0 0.0 0.00 0.00 0.00 76 1016.4
20260901140535 29 0 0.0 0.0 0.00 0.00 0.00 77 1016.4
20260901140058 28 0 0.0 0.0 0.00 0.00 0.00 78 1016.4
20260901135535 28 0 0.0 3.2 0.00 0.00 0.00 78 1016.5
20260901135035 28 0 0.0 4.8 0.00 0.00 0.00 81 1016.6
20260901134556 27 0 0.0 4.8 0.00 0.00 0.00 81 1016.6
20260901134035 27 0 0.0 0.0 0.00 0.00 0.00 85 1016.6
20260901133543 27 0 0.0 0.0 0.00 0.00 0.00 86 1016.8
20260901133106 26 0 0.0 0.0 0.00 0.00 0.00 86 1016.8
20260901132537 26 0 0.0 0.0 0.00 0.00 0.00 86 1016.9
20260901132036 26 0 0.0 0.0 0.00 0.00 0.00 88 1017.0
20260901131558 26 0 0.0 0.0 0.00 0.00 0.00 88 1017.0
20260901131038 26 0 0.0 0.0 0.00 0.00 0.00 90 1017.0
20260901130535 26 0 0.0 0.0 0.00 0.00 0.00 90 1016.9
20260901125535 25 0 0.0 0.0 0.00 0.00 0.00 90 1017.0
20260901125038 25 0 0.0 0.0 0.00 0.00 0.00 90 1016.9
20260901124605 25 0 0.0 0.0 0.00 0.00 0.00 90 1017.0
20260901124035 25 0 0.0 0.0 0.00 0.00 0.00 91 1017.1
20260901123536 25 0 0.0 0.0 0.00 0.00 0.00 91 1017.0
20260901123101 25 0 0.0 0.0 0.00 0.00 0.00 92 1016.9
20260901122536 25 0 0.0 0.0 0.00 0.00 0.00 93 1016.8
20260901122037 25 0 0.0 0.0 0.00 0.00 0.00 94 1016.8
20260901121606 24 0 0.0 0.0 0.00 0.00 0.00 94 1016.9
20260901121037 24 0 0.0 0.0 0.00 0.00 0.00 93 1016.9
20260901120539 24 0 0.0 0.0 0.00 0.00 0.00 93 1016.8
20260901120110 24 0 0.0 0.0 0.00 0.00 0.00 94 1016.7
20260901115535 23 0 0.0 0.0 0.00 0.00 0.00 95 1016.7
20260901115036 23 0 0.0 0.0 0.00 0.00 0.00 95 1016.7
20260901114603 23 0 0.0 0.0 0.00 0.00 0.00 96 1016.7
20260901114035 23 0 0.0 0.0 0.00 0.00 0.00 97 1016.7
20260901113535 23 0 0.0 0.0 0.00 0.00 0.00 97 1016.7
20260901113052 23 0 0.0 0.0 0.00 0.00 0.00 97 1016.6
20260901112539 22 0 0.0 0.0 0.00 0.00 0.00 97 1016.6
20260901112036 22 0 0.0 0.0 0.00 0.00 0.00 97 1016.6
20260901111607 22 0 0.0 0.0 0.00 0.00 0.00 97 1016.5
20260901111036 22 0 0.0 0.0 0.00 0.00 0.00 97 1016.5
20260901110535 22 0 0.0 0.0 0.00 0.00 0.00 97 1016.5
20260901110058 22 0 0.0 0.0 0.00 0.00 0.00 97 1016.4
20260901105536 22 0 0.0 0.0 0.00 0.00 0.00 97 1016.4
20260901105036 22 0 0.0 0.0 0.00 0.00 0.00 96 1016.3
20260901104602 22 0 0.0 0.0 0.00 0.00 0.00 96 1016.4
20260901104038 22 0 0.0 0.0 0.00 0.00 0.00 96 1016.3
20260901103536 22 0 0.0 0.0 0.00 0.00 0.00 96 1016.4
20260901103059 22 0 0.0 0.0 0.00 0.00 0.00 96 1016.4
20260901102535 22 0 0.0 0.0 0.00 0.00 0.00 96 1016.4
20260901102039 22 0 0.0 0.0 0.00 0.00 0.00 96 1016.3
20260901101609 22 0 0.0 0.0 0.00 0.00 0.00 96 1016.4
20260901101036 22 0 0.0 0.0 0.00 0.00 0.00 96 1016.2
20260901100538 22 0 0.0 0.0 0.00 0.00 0.00 96 1016.2
20260901100108 22 0 0.0 0.0 0.00 0.00 0.00 96 1016.2
20260901095535 22 0 0.0 0.0 0.00 0.00 0.00 96 1016.2
20260901095035 22 0 0.0 0.0 0.00 0.00 0.00 96 1016.3
20260901094558 22 0 0.0 0.0 0.00 0.00 0.00 96 1016.2
20260901094035 22 0 0.0 0.0 0.00 0.00 0.00 96 1016.2
20260901093539 22 0 0.0 0.0 0.00 0.00 0.00 96 1016.2
20260901093102 22 0 0.0 0.0 0.00 0.00 0.00 96 1016.2
20260901092535 22 0 0.0 0.0 0.00 0.00 0.00 96 1016.3
20260901092036 22 0 0.0 0.0 0.00 0.00 0.00 96 1016.3
20260901091606 22 0 0.0 0.0 0.00 0.00 0.00 96 1016.2
20260901091035 22 0 0.0 0.0 0.00 0.00 0.00 96 1016.2
20260901090535 22 0 0.0 0.0 0.00 0.00 0.00 96 1016.3
20260901085535 22 0 0.0 0.0 0.00 0.00 0.00 96 1016.2
20260901085040 22 0 0.0 0.0 0.00 0.00 0.00 96 1016.2
20260901084622 22 0 0.0 0.0 0.00 0.00 0.00 96 1016.2
20260901084037 22 0 0.0 0.0 0.00 0.00 0.00 96 1016.2
20260901083541 23 0 0.0 0.0 0.00 0.00 0.00 96 1016.2
20260901083100 23 0 0.0 0.0 0.00 0.00 0.00 96 1016.3
20260901082537 23 0 0.0 0.0 0.00 0.00 0.00 96 1016.2
20260901082038 23 0 0.0 0.0 0.00 0.00 0.00 96 1016.2
20260901081600 23 0 0.0 0.0 0.00 0.00 0.00 96 1016.2
20260901081037 23 0 0.0 0.0 0.00 0.00 0.00 96 1016.2
20260901080536 23 0 0.0 0.0 0.00 0.00 0.00 96 1016.3
20260901080113 23 0 0.0 0.0 0.00 0.00 0.00 96 1016.3
20260901075536 23 0 0.0 0.0 0.00 0.00 0.00 96 1016.3
20260901075036 23 0 0.0 0.0 0.00 0.00 0.00 96 1016.4
20260901074621 23 0 0.0 0.0 0.00 0.00 0.00 96 1016.5
20260901074041 23 0 0.0 0.0 0.00 0.00 0.00 96 1016.6
20260901073536 23 0 0.0 0.0 0.00 0.00 0.00 95 1016.6
20260901073100 23 0 0.0 0.0 0.00 0.00 0.00 95 1016.7
20260901072538 23 0 0.0 0.0 0.00 0.00 0.00 95 1016.6
20260901072041 23 0 0.0 0.0 0.00 0.00 0.00 95 1016.5
20260901071607 23 0 0.0 0.0 0.00 0.00 0.00 95 1016.5
20260901071037 23 0 0.0 0.0 0.00 0.00 0.00 95 1016.5
20260901070538 23 0 0.0 0.0 0.00 0.00 0.00 95 1016.6
20260901065535 23 0 0.0 0.0 0.00 0.00 0.00 95 1016.7
20260901065037 23 0 0.0 0.0 0.00 0.00 0.00 95 1016.7
20260901064603 23 0 0.0 0.0 0.00 0.00 0.00 95 1016.7
20260901064035 23 0 0.0 0.0 0.00 0.00 0.00 95 1016.7
20260901063535 23 0 0.0 0.0 0.00 0.00 0.00 95 1016.8
20260901063105 23 0 0.0 0.0 0.00 0.00 0.00 95 1016.8
20260901062536 23 0 0.0 0.0 0.00 0.00 0.00 95 1016.8
20260901062038 23 0 0.0 0.0 0.00 0.00 0.00 95 1016.9
20260901061559 23 0 0.0 0.0 0.00 0.00 0.00 95 1017.1
20260901061036 23 0 0.0 0.0 0.00 0.00 0.00 95 1017.1
20260901060536 23 0 0.0 0.0 0.00 0.00 0.00 95 1017.1
20260901060101 23 0 0.0 0.0 0.00 0.00 0.00 95 1017.1
20260901055535 23 0 0.0 0.0 0.00 0.00 0.00 95 1017.2
20260901055036 23 0 0.0 0.0 0.00 0.00 0.00 95 1017.2
20260901054557 23 0 0.0 0.0 0.00 0.00 0.00 95 1017.3
20260901054036 23 0 0.0 0.0 0.00 0.00 0.00 95 1017.3
20260901053538 23 0 0.0 0.0 0.00 0.00 0.00 95 1017.3
20260901053107 23 0 0.0 0.0 0.00 0.00 0.00 95 1017.3
20260901052537 23 0 0.0 0.0 0.00 0.00 0.00 95 1017.3
20260901052037 23 0 0.0 0.0 0.00 0.00 0.00 95 1017.4
20260901051606 23 0 0.0 0.0 0.00 0.00 0.00 95 1017.4
20260901051038 23 0 0.0 0.0 0.00 0.00 0.00 95 1017.5
20260901050542 23 0 0.0 0.0 0.00 0.00 0.00 94 1017.5
20260901050100 23 0 0.0 0.0 0.00 0.00 0.00 94 1017.5
20260901045536 23 0 0.0 0.0 0.00 0.00 0.00 94 1017.6
20260901045037 23 0 0.0 0.0 0.00 0.00 0.00 94 1017.7
20260901044607 23 0 0.0 0.0 0.00 0.00 0.00 94 1017.7
20260901044037 23 0 0.0 0.0 0.00 0.00 0.00 94 1017.7
20260901043536 23 0 0.0 0.0 0.00 0.00 0.00 94 1017.8
20260901043109 23 0 0.0 0.0 0.00 0.00 0.00 94 1017.7
20260901042538 23 0 0.0 0.0 0.00 0.00 0.00 94 1017.7
20260901042037 23 0 0.0 0.0 0.00 0.00 0.00 94 1017.7
20260901041619 23 0 0.0 0.0 0.00 0.00 0.00 94 1017.8
20260901041040 23 0 0.0 0.0 0.00 0.00 0.00 93 1017.7
20260901040538 23 0 0.0 0.0 0.00 0.00 0.00 93 1017.7
20260901040136 23 0 0.0 0.0 0.00 0.00 0.00 93 1017.7
20260901035538 24 0 0.0 0.0 0.00 0.00 0.00 93 1017.7
20260901035040 24 0 0.0 0.0 0.00 0.00 0.00 93 1017.8
20260901034552 24 0 0.0 0.0 0.00 0.00 0.00 93 1017.7
20260901034038 24 0 0.0 0.0 0.00 0.00 0.00 93 1017.7
20260901033538 24 0 0.0 0.0 0.00 0.00 0.00 93 1017.7
20260901033101 24 0 0.0 0.0 0.00 0.00 0.00 93 1017.7
20260901032536 24 0 0.0 0.0 0.00 0.00 0.00 92 1017.6
20260901032040 24 0 0.0 0.0 0.00 0.00 0.00 92 1017.6
20260901031602 24 0 0.0 0.0 0.00 0.00 0.00 92 1017.5
20260901031038 24 0 0.0 0.0 0.00 0.00 0.00 92 1017.5
20260901030537 25 0 0.0 0.0 0.00 0.00 0.00 92 1017.6
20260901030110 25 0 0.0 0.0 0.00 0.00 0.00 91 1017.5
20260901025538 25 0 0.0 0.0 0.00 0.00 0.00 91 1017.6
20260901025037 25 0 0.0 0.0 0.00 0.00 0.00 91 1017.6
20260901024607 25 0 0.0 0.0 0.00 0.00 0.00 91 1017.5
20260901024039 25 0 0.0 0.0 0.00 0.00 0.00 91 1017.5
20260901023536 25 0 0.0 0.0 0.00 0.00 0.00 90 1017.4
20260901023105 25 0 0.0 0.0 0.00 0.00 0.00 90 1017.5
20260901022535 25 0 0.0 0.0 0.00 0.00 0.00 90 1017.5
20260901022038 25 0 0.0 0.0 0.00 0.00 0.00 90 1017.5
20260901021600 25 0 0.0 0.0 0.00 0.00 0.00 89 1017.5
20260901021038 25 0 0.0 0.0 0.00 0.00 0.00 88 1017.6
20260901020536 25 0 0.0 0.0 0.00 0.00 0.00 88 1017.5
20260901020057 26 0 0.0 0.0 0.00 0.00 0.00 87 1017.5
20260901015535 26 0 0.0 0.0 0.00 0.00 0.00 88 1017.5
20260901015036 26 0 0.0 0.0 0.00 0.00 0.00 88 1017.6
20260901014606 26 0 0.0 0.0 0.00 0.00 0.00 88 1017.5
20260901014036 26 0 0.0 0.0 0.00 0.00 0.00 87 1017.6
20260901013536 26 0 0.0 0.0 0.00 0.00 0.00 87 1017.4
20260901013102 26 0 0.0 0.0 0.00 0.00 0.00 86 1017.5